Location: Newark
(44.3449°N, 4.8694°E)
Time: 11:13:59
(UTC+00:00)

Envisat - Pass Details

Date: 23 January 2020
Orbit: 764 x 766 km, 98.1° (Epoch: 20 February)

Event Time Altitude Azimuth Distance (km) Brightness Sun altitude
Rises 17:01:51 0° 153° (SSE) 3,220 6.2 -4.9°
Reaches altitude 10° 17:04:10 10° 149° (SSE) 2,298 5.4 -5.3°
Maximum altitude 17:09:07 56° 72° (ENE) 906 3.1 -6.1°
Drops below altitude 10° 17:14:06 10° 355° (N) 2,313 5.3 -6.9°
Sets 17:16:26 0° 351° (N) 3,244 6.1 -7.3°
